GW3533 Weather Reports


time (UTC)temp
C
wind
direction
speed
KPH
gust
KPH
rain 1hr
cm
rain 24hr
cm
rain mn
cm
humidity
%
barometer
mb
20260507004011 17 24 1.6 14.5 0.00 0.00 0.00 80 1012.5
20260507003511 18 41 3.2 14.5 0.00 0.00 0.00 79 1012.5
20260507003028 18 4 1.6 6.4 0.00 0.00 0.00 79 1012.7
20260507002513 18 29 1.6 6.4 0.00 0.00 0.00 79 1012.3
20260507002012 18 332 3.2 6.4 0.00 0.00 0.00 79 1012.0
20260507001531 18 53 1.6 11.3 0.00 0.00 0.00 79 1012.2
20260507001015 18 337 1.6 11.3 0.00 0.00 0.00 78 1012.2
20260507000513 18 325 3.2 11.3 0.00 0.00 0.00 78 1012.2
20260507000051 18 341 1.6 14.5 0.00 0.00 0.00 78 1012.0
20260506235511 19 8 3.2 14.5 0.00 0.00 0.00 78 1011.9
20260506235010 19 77 3.2 6.4 0.00 0.00 0.00 77 1011.9
20260506234530 19 13 1.6 6.4 0.00 0.00 0.00 77 1011.9
20260506234010 19 346 1.6 8.0 0.00 0.00 0.00 77 1011.7
20260506233510 20 27 3.2 8.0 0.00 0.00 0.00 76 1011.5
20260506233030 20 21 1.6 11.3 0.00 0.00 0.00 76 1011.5
20260506232511 20 351 4.8 11.3 0.00 0.00 0.00 75 1011.6
20260506232011 20 339 1.6 9.7 0.00 0.00 0.00 76 1011.6
20260506231529 20 25 3.2 11.3 0.00 0.00 0.00 75 1011.5
20260506231016 20 17 3.2 11.3 0.00 0.00 0.00 74 1011.4
20260506230512 21 359 3.2 8.0 0.00 0.00 0.00 74 1011.4
20260506230027 21 300 1.6 9.7 0.00 0.00 0.00 74 1011.4
20260506225511 22 51 3.2 9.7 0.00 0.00 0.00 72 1011.2
20260506225009 22 18 3.2 14.5 0.00 0.00 0.00 72 1011.2
20260506224535 22 29 3.2 14.5 0.00 0.00 0.00 71 1011.2
20260506224011 23 10 3.2 14.5 0.00 0.00 0.00 71 1011.1
20260506223510 23 29 1.6 14.5 0.00 0.00 0.00 71 1011.0
20260506223031 23 3 3.2 12.9 0.00 0.00 0.00 72 1011.1
20260506222512 23 360 4.8 12.9 0.00 0.00 0.00 71 1010.9
20260506222011 23 357 3.2 9.7 0.00 0.00 0.00 71 1010.9
20260506221531 24 5 3.2 11.3 0.00 0.00 0.00 71 1010.7
20260506221011 24 6 1.6 14.5 0.00 0.00 0.00 72 1010.7
20260506220512 24 341 4.8 14.5 0.00 0.00 0.00 71 1010.8
20260506220035 24 37 3.2 9.7 0.00 0.00 0.00 72 1010.7
20260506215513 23 29 3.2 8.0 0.00 0.00 0.00 73 1010.6
20260506215009 23 20 1.6 8.0 0.00 0.00 0.00 73 1010.7
20260506214530 23 3 3.2 8.0 0.00 0.00 0.00 72 1010.7
20260506214009 24 20 1.6 6.4 0.00 0.00 0.00 72 1010.8
20260506213510 24 34 1.6 11.3 0.00 0.00 0.00 73 1010.8
20260506213028 24 327 1.6 11.3 0.00 0.00 0.00 73 1010.6
20260506212510 25 320 4.8 11.3 0.00 0.00 0.00 71 1010.5
20260506212010 25 40 3.2 11.3 0.00 0.00 0.00 70 1010.5
20260506211527 25 353 3.2 8.0 0.00 0.00 0.00 71 1010.4
20260506211012 25 41 1.6 8.0 0.00 0.00 0.00 72 1010.6
20260506210514 25 18 1.6 8.0 0.00 0.00 0.00 75 1010.4
20260506210029 25 48 3.2 12.9 0.00 0.00 0.00 72 1010.5
20260506205512 25 346 3.2 12.9 0.00 0.00 0.00 74 1010.5
20260506205012 25 0 3.2 12.9 0.00 0.00 0.00 75 1010.4
20260506204528 25 6 3.2 8.0 0.00 0.00 0.00 75 1010.5
20260506204010 25 320 3.2 16.1 0.00 0.00 0.00 75 1010.8
20260506203510 25 24 1.6 16.1 0.00 0.00 0.00 74 1010.7
20260506203030 25 7 3.2 16.1 0.00 0.00 0.00 72 1010.7
20260506202514 26 34 3.2 11.3 0.00 0.00 0.00 69 1010.7
20260506202011 28 5 3.2 8.0 0.00 0.00 0.00 69 1010.6
20260506201541 28 12 0.0 3.2 0.00 0.00 0.00 69 1010.5
20260506201008 28 0 0.0 3.2 0.00 0.00 0.00 72 1010.4
20260506200509 28 0 0.0 0.0 0.00 0.00 0.00 70 1010.5
20260506200028 28 0 0.0 1.6 0.00 0.00 0.00 72 1010.6
20260506195510 28 0 0.0 1.6 0.00 0.00 0.00 71 1010.7
20260506195013 28 3 0.0 1.6 0.00 0.00 0.00 72 1010.6
20260506194534 28 3 0.0 3.2 0.00 0.00 0.00 72 1010.5
20260506194017 28 0 0.0 3.2 0.00 0.00 0.00 72 1010.5
20260506193510 28 0 0.0 3.2 0.00 0.00 0.00 71 1010.5
20260506193030 28 74 0.0 3.2 0.00 0.00 0.00 71 1010.4
20260506192515 28 6 0.0 3.2 0.00 0.00 0.00 71 1010.6
20260506192013 28 73 0.0 4.8 0.00 0.00 0.00 71 1010.5
20260506191528 28 353 0.0 4.8 0.00 0.00 0.00 72 1010.6
20260506191010 28 55 1.6 8.0 0.00 0.00 0.00 70 1010.6
20260506190509 28 116 3.2 8.0 0.00 0.00 0.00 69 1010.8
20260506190029 28 359 1.6 4.8 0.00 0.00 0.00 68 1010.8
20260506185511 28 98 1.6 4.8 0.00 0.00 0.00 69 1010.8
20260506185008 28 6 1.6 4.8 0.00 0.00 0.00 71 1010.9
20260506184531 28 50 1.6 4.8 0.00 0.00 0.00 71 1010.9
20260506184012 28 325 0.0 4.8 0.00 0.00 0.00 71 1010.9
20260506183509 28 0 0.0 4.8 0.00 0.00 0.00 72 1011.0
20260506183028 28 0 0.0 4.8 0.00 0.00 0.00 73 1011.0
20260506182509 28 0 0.0 4.8 0.00 0.00 0.00 72 1011.1
20260506182016 28 0 0.0 4.8 0.00 0.00 0.00 73 1011.1
20260506181530 27 35 1.6 4.8 0.00 0.00 0.00 75 1011.2
20260506181011 27 47 1.6 6.4 0.00 0.00 0.00 77 1011.2
20260506180510 26 346 1.6 6.4 0.00 0.00 0.00 77 1011.3
20260506180028 26 5 1.6 4.8 0.00 0.00 0.00 79 1011.4
20260506175513 26 0 0.0 4.8 0.00 0.00 0.00 79 1011.5
20260506175010 25 16 1.6 4.8 0.00 0.00 0.00 81 1011.5
20260506174529 24 349 0.0 3.2 0.00 0.00 0.00 82 1011.5
20260506174012 23 321 0.0 4.8 0.00 0.00 0.00 82 1011.5
20260506173512 23 24 0.0 4.8 0.00 0.00 0.00 81 1011.6
20260506173029 23 46 1.6 6.4 0.00 0.00 0.00 81 1011.6
20260506172510 24 328 1.6 6.4 0.00 0.00 0.00 79 1011.8
20260506172011 25 11 1.6 6.4 0.00 0.00 0.00 81 1011.8
20260506171539 25 0 0.0 4.8 0.00 0.00 0.00 81 1011.8
20260506171012 25 107 1.6 3.2 0.00 0.00 0.00 81 1011.6
20260506170508 25 119 0.0 3.2 0.00 0.00 0.00 81 1011.8
20260506170030 25 0 0.0 0.0 0.00 0.00 0.00 80 1011.6
20260506165510 25 0 0.0 0.0 0.00 0.00 0.00 81 1011.7
20260506165015 25 0 0.0 0.0 0.00 0.00 0.00 81 1011.8
20260506164527 25 0 0.0 0.0 0.00 0.00 0.00 81 1011.7
20260506164021 25 0 0.0 0.0 0.00 0.00 0.00 80 1011.7
20260506163515 25 0 0.0 4.8 0.00 0.00 0.00 81 1011.9
20260506163038 25 0 0.0 4.8 0.00 0.00 0.00 82 1011.7
20260506162514 25 106 0.0 3.2 0.00 0.00 0.00 82 1011.7
20260506162011 25 109 0.0 3.2 0.00 0.00 0.00 82 1011.6
20260506161533 25 0 0.0 3.2 0.00 0.00 0.00 82 1011.8
20260506161011 25 41 0.0 3.2 0.00 0.00 0.00 83 1011.8
20260506160514 25 0 0.0 0.0 0.00 0.00 0.00 83 1011.7
20260506160030 25 0 0.0 0.0 0.00 0.00 0.00 84 1011.6
20260506155511 25 0 0.0 0.0 0.00 0.00 0.00 84 1011.6
20260506155014 24 0 0.0 0.0 0.00 0.00 0.00 85 1011.6
20260506154537 24 0 0.0 0.0 0.00 0.00 0.00 86 1011.6
20260506154017 23 0 0.0 0.0 0.00 0.00 0.00 86 1011.5
20260506153511 23 0 0.0 0.0 0.00 0.00 0.00 87 1011.3
20260506153029 23 0 0.0 0.0 0.00 0.00 0.00 87 1011.3
20260506152509 23 0 0.0 0.0 0.00 0.00 0.00 88 1011.3
20260506152009 23 0 0.0 0.0 0.00 0.00 0.00 88 1011.2
20260506151532 23 0 0.0 0.0 0.00 0.00 0.00 88 1011.1
20260506151010 23 0 0.0 0.0 0.00 0.00 0.00 89 1011.0
20260506150509 23 0 0.0 0.0 0.00 0.00 0.00 89 1010.8
20260506150031 23 0 0.0 0.0 0.00 0.00 0.00 89 1010.8
20260506145510 23 0 0.0 0.0 0.00 0.00 0.00 90 1010.8
20260506145012 23 0 0.0 0.0 0.00 0.00 0.00 90 1010.7
20260506144529 23 0 0.0 0.0 0.00 0.00 0.00 90 1010.8
20260506144010 22 0 0.0 0.0 0.00 0.00 0.00 90 1010.9
20260506143512 22 0 0.0 0.0 0.00 0.00 0.00 91 1010.9
20260506143030 22 0 0.0 0.0 0.00 0.00 0.00 90 1010.9
20260506142511 22 0 0.0 0.0 0.00 0.00 0.00 90 1011.0
20260506142011 22 0 0.0 0.0 0.00 0.00 0.00 90 1011.0
20260506141527 22 0 0.0 0.0 0.00 0.00 0.00 90 1010.8
20260506141009 22 0 0.0 0.0 0.00 0.00 0.00 90 1010.4
20260506140516 22 0 0.0 0.0 0.00 0.00 0.00 90 1010.4
20260506140030 22 0 0.0 0.0 0.00 0.00 0.00 90 1010.3
20260506135510 22 0 0.0 0.0 0.00 0.00 0.00 90 1010.1
20260506135010 22 0 0.0 0.0 0.00 0.00 0.00 90 1009.9
20260506134528 22 0 0.0 0.0 0.00 0.00 0.00 90 1009.8
20260506134017 22 0 0.0 0.0 0.00 0.00 0.00 90 1009.6
20260506133511 22 0 0.0 0.0 0.00 0.00 0.00 90 1009.6
20260506133029 22 0 0.0 0.0 0.00 0.00 0.00 90 1009.5
20260506132510 22 0 0.0 0.0 0.00 0.00 0.00 90 1009.6
20260506132015 22 0 0.0 1.6 0.00 0.00 0.00 90 1009.4
20260506131529 22 0 0.0 1.6 0.00 0.00 0.00 90 1009.5
20260506131011 22 31 0.0 1.6 0.00 0.00 0.00 90 1009.4
20260506130513 22 25 0.0 3.2 0.00 0.00 0.00 90 1009.3
20260506130028 22 53 0.0 3.2 0.00 0.00 0.00 90 1009.2
20260506125512 22 0 0.0 1.6 0.00 0.00 0.00 90 1009.1
20260506125010 22 0 0.0 0.0 0.00 0.00 0.00 90 1009.0
20260506124528 22 0 0.0 0.0 0.00 0.00 0.00 90 1009.2
20260506124010 22 0 0.0 0.0 0.00 0.00 0.00 90 1009.2
20260506123512 22 0 0.0 0.0 0.00 0.00 0.00 90 1009.1
20260506123030 22 0 0.0 0.0 0.00 0.00 0.00 90 1009.1
20260506122512 22 0 0.0 0.0 0.00 0.00 0.00 90 1009.2
20260506122011 22 0 0.0 0.0 0.00 0.00 0.00 90 1009.2
20260506121528 22 0 0.0 0.0 0.00 0.00 0.00 89 1009.2
20260506121010 22 0 0.0 0.0 0.00 0.00 0.00 89 1009.2
20260506120514 22 0 0.0 0.0 0.00 0.00 0.00 89 1009.2
20260506120033 22 0 0.0 0.0 0.00 0.00 0.00 89 1009.2
20260506115510 22 0 0.0 0.0 0.00 0.00 0.00 89 1009.2
20260506115010 22 0 0.0 0.0 0.00 0.00 0.00 89 1009.2
20260506114529 22 0 0.0 1.6 0.00 0.00 0.00 89 1009.2
20260506114011 22 0 0.0 1.6 0.00 0.00 0.00 89 1009.1
20260506113511 22 0 0.0 3.2 0.00 0.00 0.00 89 1009.1
20260506113029 22 0 0.0 3.2 0.00 0.00 0.00 89 1009.0
20260506112512 22 0 0.0 1.6 0.00 0.00 0.00 89 1009.1
20260506112012 22 0 0.0 1.6 0.00 0.00 0.00 89 1009.1
20260506111530 22 0 0.0 1.6 0.00 0.00 0.00 89 1009.1
20260506111010 22 0 0.0 1.6 0.00 0.00 0.00 89 1009.0
20260506110510 22 0 0.0 1.6 0.00 0.00 0.00 89 1009.0
20260506110030 22 73 0.0 0.0 0.00 0.00 0.00 89 1009.0
20260506105514 22 0 0.0 1.6 0.00 0.00 0.00 89 1009.0
20260506105009 22 0 0.0 3.2 0.00 0.00 0.00 89 1008.9
20260506104528 22 0 0.0 3.2 0.00 0.00 0.00 89 1008.9
20260506104011 22 0 0.0 3.2 0.00 0.00 0.00 89 1008.9
20260506103511 22 0 0.0 3.2 0.00 0.00 0.00 89 1008.9
20260506103032 22 0 0.0 1.6 0.00 0.00 0.00 89 1008.8
20260506102510 22 0 0.0 4.8 0.00 0.00 0.00 89 1008.9
20260506102009 22 207 0.0 4.8 0.00 0.00 0.00 89 1008.9
20260506101528 22 40 0.0 3.2 0.00 0.00 0.00 89 1009.0
20260506101013 22 81 0.0 3.2 0.00 0.00 0.00 89 1009.0
20260506100512 22 126 0.0 3.2 0.00 0.00 0.00 89 1009.0
20260506100033 22 0 0.0 4.8 0.00 0.00 0.00 89 1008.9
20260506095511 22 111 0.0 4.8 0.00 0.00 0.00 89 1008.9
20260506095010 22 256 1.6 4.8 0.00 0.00 0.00 89 1009.0
20260506094528 22 346 0.0 3.2 0.00 0.00 0.00 89 1009.0
20260506094010 22 31 1.6 6.4 0.00 0.00 0.00 89 1008.9
20260506093510 22 265 0.0 6.4 0.00 0.00 0.00 88 1008.9
20260506093047 22 81 0.0 6.4 0.00 0.00 0.00 88 1008.8
20260506092512 22 153 1.6 4.8 0.00 0.00 0.00 88 1008.9
20260506092011 22 0 0.0 4.8 0.00 0.00 0.00 88 1008.6
20260506091528 22 297 0.0 4.8 0.00 0.00 0.00 88 1008.6
20260506091011 22 131 1.6 4.8 0.00 0.00 0.00 88 1008.6
20260506090512 22 157 1.6 6.4 0.00 0.00 0.00 88 1008.6
20260506090027 22 36 1.6 6.4 0.00 0.00 0.00 88 1008.6
20260506085511 22 38 1.6 6.4 0.00 0.00 0.00 88 1008.5
20260506085010 22 0 0.0 6.4 0.00 0.00 0.00 88 1008.7
20260506084527 22 210 1.6 6.4 0.00 0.00 0.00 88 1008.6
20260506084013 22 128 0.0 6.4 0.00 0.00 0.00 88 1008.7
20260506083511 22 284 1.6 6.4 0.00 0.00 0.00 88 1008.7
20260506083034 22 142 1.6 8.0 0.00 0.00 0.00 88 1008.6
20260506082515 22 128 3.2 8.0 0.00 0.00 0.00 88 1008.7
20260506082012 22 77 1.6 6.4 0.00 0.00 0.00 88 1008.8
20260506081528 22 88 1.6 8.0 0.00 0.00 0.00 88 1008.7
20260506081013 22 121 1.6 8.0 0.00 0.00 0.00 88 1008.6
20260506080511 22 134 1.6 8.0 0.00 0.00 0.00 88 1008.6
20260506073514 23 73 1.6 6.4 0.00 0.00 0.00 88 1008.9
20260506073028 23 115 1.6 6.4 0.00 0.00 0.00 88 1009.0
20260506072512 23 103 1.6 6.4 0.00 0.00 0.00 88 1008.9
20260506072018 23 112 1.6 6.4 0.00 0.00 0.00 88 1009.0
20260506071528 23 100 1.6 6.4 0.00 0.00 0.00 88 1009.2
20260506071010 23 240 1.6 4.8 0.00 0.00 0.00 88 1009.1
20260506070512 23 94 1.6 4.8 0.00 0.00 0.00 88 1009.1
20260506062511 23 123 3.2 8.0 0.00 0.00 0.00 88 1009.3
20260506062011 23 125 1.6 4.8 0.00 0.00 0.00 88 1009.4
20260506061530 23 339 1.6 4.8 0.00 0.00 0.00 88 1009.5
20260506061011 23 67 1.6 6.4 0.00 0.00 0.00 88 1009.4
20260506060513 23 54 3.2 6.4 0.00 0.00 0.00 88 1009.4
20260506051009 23 66 1.6 6.4 0.00 0.00 0.00 87 1009.3
20260506050511 23 168 1.6 4.8 0.00 0.00 0.00 87 1009.4
20260506045012 23 0 1.6 4.8 0.00 0.00 0.00 87 1009.1
20260506044533 23 0 0.0 6.4 0.00 0.00 0.00 87 1009.0
20260506044011 23 0 0.0 6.4 0.00 0.00 0.00 87 1009.1
20260506043513 23 0 0.0 1.6 0.00 0.00 0.00 87 1009.1
20260506043030 23 0 0.0 4.8 0.00 0.00 0.00 87 1009.1
20260506042509 23 57 1.6 4.8 0.00 0.00 0.00 87 1009.2
20260506042010 23 36 1.6 4.8 0.00 0.00 0.00 87 1009.1
20260506041530 23 76 1.6 8.0 0.00 0.00 0.00 87 1009.1
20260506041011 23 62 1.6 8.0 0.00 0.00 0.00 87 1009.0
20260506040511 23 12 1.6 8.0 0.00 0.00 0.00 87 1009.0
20260506040030 23 91 1.6 6.4 0.00 0.00 0.00 86 1008.9
20260506035511 23 127 1.6 8.0 0.00 0.00 0.00 86 1008.8
20260506035011 23 0 1.6 8.0 0.00 0.00 0.00 86 1008.7
20260506034528 23 143 1.6 8.0 0.00 0.00 0.00 86 1008.7
20260506034013 23 0 1.6 4.8 0.00 0.00 0.00 86 1008.7
20260506033510 23 66 0.0 3.2 0.00 0.00 0.00 86 1008.7
20260506033033 24 71 0.0 8.0 0.00 0.00 0.00 85 1008.7
20260506032509 24 71 1.6 8.0 0.00 0.00 0.00 85 1008.6
20260506032011 24 58 1.6 8.0 0.00 0.00 0.00 85 1008.4
20260506031530 24 102 1.6 6.4 0.00 0.00 0.00 85 1008.4
20260506031012 24 117 1.6 4.8 0.00 0.00 0.00 85 1008.2
20260506030509 24 0 0.0 3.2 0.00 0.00 0.00 85 1008.2
20260506030030 24 131 1.6 3.2 0.00 0.00 0.00 85 1008.1
20260506025513 24 0 0.0 1.6 0.00 0.00 0.00 84 1008.0
20260506025013 24 43 0.0 1.6 0.00 0.00 0.00 84 1008.0
20260506024529 24 0 0.0 0.0 0.00 0.00 0.00 83 1007.9
20260506024010 25 0 0.0 0.0 0.00 0.00 0.00 83 1007.8
20260506023509 25 0 0.0 0.0 0.00 0.00 0.00 83 1007.7
20260506023027 25 0 0.0 1.6 0.00 0.00 0.00 82 1007.7
20260506022511 25 0 0.0 1.6 0.00 0.00 0.00 82 1007.6
20260506022009 25 73 0.0 6.4 0.00 0.00 0.00 82 1007.6
20260506021530 25 89 0.0 6.4 0.00 0.00 0.00 82 1007.5
20260506021010 25 0 0.0 0.0 0.00 0.00 0.00 82 1007.5
20260506020512 25 0 0.0 0.0 0.00 0.00 0.00 82 1007.5
20260506020100 25 0 0.0 0.0 0.00 0.00 0.00 82 1007.4
20260506015512 25 0 0.0 3.2 0.00 0.00 0.00 82 1007.3
20260506015016 25 0 0.0 3.2 0.00 0.00 0.00 81 1007.2
20260506014528 25 80 0.0 3.2 0.00 0.00 0.00 81 1007.0
20260506014008 25 0 0.0 1.6 0.00 0.00 0.00 81 1007.0
20260506013518 25 25 0.0 0.0 0.00 0.00 0.00 81 1006.9
20260506013030 25 25 0.0 0.0 0.00 0.00 0.00 81 1006.9
20260506012511 25 0 0.0 0.0 0.00 0.00 0.00 80 1006.8
20260506012012 26 0 0.0 0.0 0.00 0.00 0.00 80 1006.9
20260506011528 26 25 0.0 1.6 0.00 0.00 0.00 80 1007.0
20260506011010 26 0 0.0 1.6 0.00 0.00 0.00 80 1006.9
20260506010510 26 20 0.0 1.6 0.00 0.00 0.00 80 1006.9
20260506010031 26 0 0.0 0.0 0.00 0.00 0.00 79 1006.9
20260506005517 26 0 0.0 0.0 0.00 0.00 0.00 79 1006.9
20260506005009 26 0 0.0 0.0 0.00 0.00 0.00 78 1006.9
20260506004527 26 0 0.0 0.0 0.00 0.00 0.00 78 1007.0